AKDT,Max TemperatureF,Mean TemperatureF,Min TemperatureF,Max Dew PointF,MeanDew PointF,Min DewpointF,Max Humidity, Mean Humidity, Min Humidity, Max Sea Level PressureIn, Mean Sea Level PressureIn, Min Sea Level PressureIn, Max VisibilityMiles, Mean VisibilityMiles, Min VisibilityMiles, Max Wind SpeedMPH, Mean Wind SpeedMPH, Max Gust SpeedMPH,PrecipitationIn, CloudCover, Events, WindDirDegrees
2012-10-1,45,36,27,28,25,22,88,69,42,30.38,30.26,30.09,10,10,10,8,6,,0.00,3,,24
2012-10-2,48,42,35,33,26,21,65,54,45,30.39,30.30,30.23,10,10,10,18,10,28,0.00,8,,29
2012-10-3,54,48,41,40,33,26,77,60,45,30.27,30.20,30.06,10,10,7,15,7,24,0.18,7,Rain,25
2012-10-4,59,52,46,44,39,34,90,59,45,30.12,30.03,29.98,10,10,8,29,13,44,0.11,5,Rain,131
2012-10-5,50,46,41,45,42,39,96,91,74,30.23,30.16,30.08,10,9,5,10,5,,0.55,6,Rain,352
2012-10-6,48,44,41,45,43,40,100,92,83,30.30,30.23,30.13,10,9,5,7,2,,0.64,7,Fog-Rain,13
2012-10-7,48,45,42,45,42,40,96,92,89,30.32,30.28,30.25,10,9,5,12,8,,0.33,7,Rain,353
2012-10-8,53,48,42,47,45,42,100,91,80,30.25,30.19,30.16,10,8,0,6,1,,0.00,8,Fog,124
2012-10-9,48,45,42,46,44,42,100,95,82,30.18,30.14,30.09,10,5,0,6,1,,0.02,8,Fog-Rain,141
2012-10-10,48,42,39,43,39,22,100,89,39,30.09,30.02,29.92,10,7,1,23,3,37,0.00,6,,120
2012-10-11,46,37,28,33,26,18,96,65,35,29.92,29.75,29.55,10,10,10,22,9,34,0.00,0,,42
2012-10-12,42,33,25,28,23,17,92,72,53,29.53,29.29,29.12,10,10,10,5,2,,0.00,0,,85
2012-10-13,34,30,27,31,26,10,100,82,37,29.22,29.16,29.08,10,8,2,17,3,30,0.01,6,Snow,77
2012-10-14,39,34,28,32,30,27,100,95,73,29.20,29.06,28.91,10,5,0,5,1,,0.00,6,Fog,111
2012-10-15,42,37,32,37,32,29,96,90,73,29.07,29.01,28.92,10,9,2,9,1,,0.04,7,Rain-Snow,236
2012-10-16,32,28,26,28,23,20,92,77,66,29.54,29.26,29.07,10,9,2,10,4,,0.00,8,Snow,189
2012-10-17,36,30,25,27,25,22,93,84,67,29.73,29.67,29.57,10,10,10,8,2,,0.00,2,,171
2012-10-18,32,26,19,22,19,16,88,77,61,29.83,29.77,29.67,10,10,10,6,3,,0.00,0,,239
2012-10-19,37,28,18,20,15,8,88,57,29,30.04,29.93,29.83,10,10,10,29,9,44,0.00,0,,67
2012-10-20,39,36,33,8,6,3,34,29,23,30.30,30.20,30.06,10,10,9,34,28,50,0.00,0,,24
2012-10-21,33,26,19,14,9,1,71,48,27,30.32,30.30,30.28,10,10,6,34,17,48,0.00,0,,112
2012-10-22,28,20,12,13,10,7,81,68,47,30.30,30.27,30.25,10,10,10,5,1,,0.00,0,,137
2012-10-23,28,19,10,15,10,5,87,71,51,30.26,30.24,30.22,10,10,10,9,2,,0.00,0,,144
2012-10-24,39,26,15,13,8,4,78,47,24,30.43,30.30,30.26,10,8,2,34,11,54,0.00,0,Snow,55
2012-10-25,33,26,18,15,10,3,74,53,35,30.52,30.49,30.45,10,10,10,8,2,,0.00,0,,141
2012-10-26,28,21,14,14,11,6,84,67,51,30.48,30.37,30.20,10,10,9,7,2,,0.00,0,,13
2012-10-27,30,19,10,17,11,6,88,76,49,30.20,30.09,30.01,10,10,9,5,1,,0.00,0,,147
2012-10-28,32,21,12,17,13,9,88,75,51,30.02,30.00,29.99,10,10,9,7,4,,0.00,0,,5
2012-10-29,32,22,14,22,15,10,88,74,57,30.01,29.89,29.78,10,10,6,7,2,,0.00,4,Snow,355
2012-10-30,32,24,19,25,17,2,96,72,34,29.78,29.65,29.51,10,7,1,36,8,50,0.04,6,Snow,22
2012-10-31,28,26,24,5,0,-4,41,32,26,29.67,29.54,29.48,10,10,6,37,29,51,0.00,0,Snow,36